Location: Bottenau
(48.5138°N, 8.0462°E)
Time: 16:15:00
(UTC+00:00)

USA 229 - Pass Details

Date: 18 April 2021
Orbit: 958 x 1254 km, 63.4° (Epoch: 23 April)

Event Time Altitude Azimuth Distance (km) Brightness Sun altitude
Rises 23:24:35 0° 316° (NW) 3,975 7.3 -30.3°
Reaches altitude 10° 23:27:18 10° 311° (NW) 3,054 6.5 -30.3°
Enters shadow 23:33:40 47° 254° (WSW) 1,552 4.3 -30.3°
